sat.trackr.live / text

‹ back to catalog

STARLINK-4484

NORAD 53417 · 2022-097AF

PAYLOAD ACTIVE UNKNOWN

§ Identity

Operator
Country
US
Launch date
2022-08-10
Launch site
AFETR
Launch vehicle
Mass (kg)
RCS (m²)

Purposes: comms

External: N2YO · Heavens-Above · Gunter

§ Orbital elements

Epoch: 2026-09-20T04:00:03.000096Z

Period
94.32 min
Inclination
53.1609°
Eccentricity
0.0001526
Mean motion
15.26687138 rev/d
Perigee alt
484.7 km
Apogee alt
486.8 km
Semi-major
6,863.9 km
B*
2.0888e-3
RAAN
318.8649°
Arg perigee
60.5782°
Mean anomaly
11.8757°
Rev number
578

§ Raw data

STARLINK-44841 53417U 22097AF  26263.16670139  .00055630  00000+0  20888-2 0  99982 53417  53.1609 318.8649 0001526  60.5782  11.8757 15.26687138  5783

JSON: /api/v1/satellites/53417 · /tle

For live sub-satellite position, see the globe view (requires WebGL).

§ Visibility from observer

Set your observer location to see the next 7 days of passes ≥ 10°. The values pass through the URL so the page stays shareable.

No JS? Fill the form by hand. The geolocation button needs JavaScript.